Regional Weather Roundup
Issued by NWS

Home | Current Version | Previous Version | Text Only | Print | Product List | Glossary Off
Versions: 1 2 3 4 5 6 7 8 9 10 11 12 13 14 15 16 17 18 19 20 21 22 23 24 25 26 27 28 29 30 31 32 33 34 35 36 37 38 39 40 41 42 43 44 45 46 47 48 49 50

000
ASUS43 KFSD 031210
RWRSD

WEATHER ROUNDUP FOR SOUTH DAKOTA
NATIONAL WEATHER SERVICE SIOUX FALLS SD
700 AM CDT WED JUN 03 2015

NOTE: "FAIR" INDICATES FEW OR NO CLOUDS BELOW 12,000 FEET WITH NO
SIGNIFICANT WEATHER AND/OR OBSTRUCTIONS TO VISIBILITY.


SDZ001>005-009-010-012>017-031300-
NORTHWEST AND NORTH CENTRAL SOUTH DAKOTA

CITY           SKY/WX    TMP DP  RH WIND       PRES   REMARKS
BUFFALO          N/A     53  48  83 N16       29.93R
FAITH            N/A     56  50  80 N17       29.93R
MOBRIDGE       CLOUDY    59  57  93 NW18G25   29.85R
$$

SDZ012>016-024>037-041>051-057-063-072>074-031300-
SOUTHWEST AND SOUTH CENTRAL SOUTH DAKOTA

CITY           SKY/WX    TMP DP  RH WIND       PRES   REMARKS
RAPID CTY ARPT CLEAR     54  51  90 N12       29.96R
PIERRE         MOCLDY    58  54  86 N8        29.87R
CUSTER         CLEAR     47  50 100 W3        30.04R
ELLSWORTH AFB  CLEAR     54  53  95 N10       29.96R
PHILIP         CLEAR     55  53  93 CALM      29.92R
PINE RIDGE     PTCLDY    52  49  89 VRB5      29.98R
SPEARFISH      MOCLDY    50  50 100 W7        30.02R
WINNER         FAIR      61  53  75 NW14      29.89R
$$

SDZ004>011-016>023-039-040-031300-
NORTHEAST SOUTH DAKOTA

CITY           SKY/WX    TMP DP  RH WIND       PRES   REMARKS
ABERDEEN       CLOUDY    62  57  83 W9        29.82R
WATERTOWN      LGT RAIN  66  62  87 W13       29.82R
BROOKINGS      CLOUDY    66  61  82 NW18      29.79S
SISSETON         N/A     66  63  90 N8        29.75R
$$

SDZ017-020-022-023-036>040-048>070-031300-
SOUTHEAST SOUTH DAKOTA

CITY           SKY/WX    TMP DP  RH WIND       PRES   REMARKS
SIOUX FALLS    LGT RAIN  64  61  90 S5        29.79S
HURON          LGT RAIN  63  61  93 N13       29.83R
CHAMBERLAIN    CLOUDY    64  59  85 N12       29.83R
MITCHELL       LGT RAIN  66  62  87 N14       29.79R
YANKTON        CLOUDY    63  61  94 W6        29.81S
$$

ABBREVIATIONS USED IN REMARKS
   TC - TEMPERATURE IN CELSIUS
  WCI - WIND CHILL INDEX
   HX - HEAT INDEX
  VSB - VISIBILITY




USA.gov is the U.S. government's official web portal to all federal, state and local government web resources and services.